User: anonymous   Login
Location: Ostrava
(49.8330°N, 18.2830°E)
Time: 02:56:28
(UTC+01:00)
Language:

Cosmos 1766 - Orbit

View from above orbital plane
View from above orbital plane
View from above satellite
View from above satellite

Ground track
Ground track

The orbit data is extracted from the following two-line orbital elements,

1 16881U 86055A   15058.13101136  .00003375  00000-0  22037-3 0  9998
2 16881 082.5117 125.1989 0012476 068.1475 292.1078 15.07480565554583
Epoch (UTC): 27 February 2015 03:08:39
Eccentricity: 0.0012476
inclination: 82.5117°
perigee height: 535 km
apogee height: 552 km
right ascension of ascending node: 125.1989°
argument of perigee: 68.1475°
revolutions per day: 15.07480565
mean anomaly at epoch: 292.1078°
orbit number at epoch: 55458

The dashed part of the orbit path shows where the satellite is in the earth's shadow,  

DLR